﻿測定場所 (Monitoring sites),日付 (Measurement date),時間 (Measurement time),線量率 最大値 (max) μGy/h,線量率 最小値 (min) μGy/h,線量率 平均値 (average) μGy/h,
足立 (Adachi),2013-12-22,23:01～24:00,0.0499,0.0444,0.0471,
足立 (Adachi),2013-12-22,22:01～23:00,0.0499,0.0443,0.0469,
足立 (Adachi),2013-12-22,21:01～22:00,0.0503,0.0439,0.0470,
足立 (Adachi),2013-12-22,20:01～21:00,0.0497,0.0431,0.0466,
足立 (Adachi),2013-12-22,19:01～20:00,0.0505,0.0439,0.0470,
足立 (Adachi),2013-12-22,18:01～19:00,0.0499,0.0435,0.0467,
足立 (Adachi),2013-12-22,17:01～18:00,0.0497,0.0433,0.0467,
足立 (Adachi),2013-12-22,16:01～17:00,0.0497,0.0434,0.0465,
足立 (Adachi),2013-12-22,15:01～16:00,0.0498,0.0441,0.0467,
足立 (Adachi),2013-12-22,14:01～15:00,0.0500,0.0439,0.0470,
足立 (Adachi),2013-12-22,13:01～14:00,0.0498,0.0447,0.0469,
足立 (Adachi),2013-12-22,12:01～13:00,0.0495,0.0439,0.0466,
足立 (Adachi),2013-12-22,11:01～12:00,0.0502,0.0438,0.0466,
足立 (Adachi),2013-12-22,10:01～11:00,0.0502,0.0418,0.0464,
足立 (Adachi),2013-12-22,09:01～10:00,0.0489,0.0434,0.0467,
足立 (Adachi),2013-12-22,08:01～09:00,0.0491,0.0441,0.0465,
足立 (Adachi),2013-12-22,07:01～08:00,0.0492,0.0428,0.0459,
足立 (Adachi),2013-12-22,06:01～07:00,0.0506,0.0435,0.0467,
足立 (Adachi),2013-12-22,05:01～06:00,0.0502,0.0431,0.0468,
足立 (Adachi),2013-12-22,04:01～05:00,0.0501,0.0434,0.0466,
足立 (Adachi),2013-12-22,03:01～04:00,0.0492,0.0439,0.0465,
足立 (Adachi),2013-12-22,02:01～03:00,0.0489,0.0425,0.0462,
足立 (Adachi),2013-12-22,01:01～02:00,0.0489,0.0435,0.0464,
足立 (Adachi),2013-12-22,00:01～01:00,0.0497,0.0433,0.0466,
足立 (Adachi),2013-12-21,23:01～24:00,0.0496,0.0436,0.0459,
足立 (Adachi),2013-12-21,22:01～23:00,0.0501,0.0431,0.0466,
足立 (Adachi),2013-12-21,21:01～22:00,0.0510,0.0431,0.0467,
足立 (Adachi),2013-12-21,20:01～21:00,0.0495,0.0440,0.0469,
足立 (Adachi),2013-12-21,19:01～20:00,0.0499,0.0446,0.0470,
足立 (Adachi),2013-12-21,18:01～19:00,0.0503,0.0439,0.0466,
足立 (Adachi),2013-12-21,17:01～18:00,0.0495,0.0434,0.0465,
足立 (Adachi),2013-12-21,16:01～17:00,0.0495,0.0430,0.0465,
足立 (Adachi),2013-12-21,15:01～16:00,0.0494,0.0435,0.0470,
足立 (Adachi),2013-12-21,14:01～15:00,0.0497,0.0435,0.0466,
足立 (Adachi),2013-12-21,13:01～14:00,0.0513,0.0451,0.0474,
足立 (Adachi),2013-12-21,12:01～13:00,0.0504,0.0440,0.0473,
足立 (Adachi),2013-12-21,11:01～12:00,0.0498,0.0440,0.0469,
足立 (Adachi),2013-12-21,10:01～11:00,0.0508,0.0442,0.0476,
足立 (Adachi),2013-12-21,09:01～10:00,0.0500,0.0449,0.0475,
足立 (Adachi),2013-12-21,08:01～09:00,0.0499,0.0444,0.0471,
足立 (Adachi),2013-12-21,07:01～08:00,0.0506,0.0440,0.0466,
足立 (Adachi),2013-12-21,06:01～07:00,0.0490,0.0434,0.0463,
足立 (Adachi),2013-12-21,05:01～06:00,0.0504,0.0423,0.0464,
足立 (Adachi),2013-12-21,04:01～05:00,0.0506,0.0434,0.0465,
足立 (Adachi),2013-12-21,03:01～04:00,0.0518,0.0438,0.0467,
足立 (Adachi),2013-12-21,02:01～03:00,0.0510,0.0426,0.0464,
足立 (Adachi),2013-12-21,01:01～02:00,0.0488,0.0420,0.0463,
足立 (Adachi),2013-12-21,00:01～01:00,0.0504,0.0429,0.0464,
足立 (Adachi),2013-12-20,23:01～24:00,0.0499,0.0425,0.0463,
足立 (Adachi),2013-12-20,22:01～23:00,0.0506,0.0441,0.0467,
足立 (Adachi),2013-12-20,21:01～22:00,0.0494,0.0435,0.0465,
足立 (Adachi),2013-12-20,20:01～21:00,0.0522,0.0435,0.0471,
足立 (Adachi),2013-12-20,19:01～20:00,0.0503,0.0440,0.0472,
足立 (Adachi),2013-12-20,18:01～19:00,0.0515,0.0446,0.0476,
足立 (Adachi),2013-12-20,17:01～18:00,0.0578,0.0471,0.0523,
足立 (Adachi),2013-12-20,16:01～17:00,0.0726,0.0545,0.0632,
足立 (Adachi),2013-12-20,15:01～16:00,0.0702,0.0599,0.0657,
足立 (Adachi),2013-12-20,14:01～15:00,0.0614,0.0440,0.0534,
足立 (Adachi),2013-12-20,13:01～14:00,0.0493,0.0423,0.0457,
足立 (Adachi),2013-12-20,12:01～13:00,0.0485,0.0421,0.0462,
足立 (Adachi),2013-12-20,11:01～12:00,0.0510,0.0438,0.0477,
足立 (Adachi),2013-12-20,10:01～11:00,0.0492,0.0430,0.0461,
足立 (Adachi),2013-12-20,09:01～10:00,0.0490,0.0424,0.0456,
足立 (Adachi),2013-12-20,08:01～09:00,0.0500,0.0446,0.0472,
足立 (Adachi),2013-12-20,07:01～08:00,0.0499,0.0433,0.0470,
足立 (Adachi),2013-12-20,06:01～07:00,0.0503,0.0442,0.0470,
足立 (Adachi),2013-12-20,05:01～06:00,0.0521,0.0456,0.0488,
足立 (Adachi),2013-12-20,04:01～05:00,0.0519,0.0451,0.0483,
足立 (Adachi),2013-12-20,03:01～04:00,0.0507,0.0449,0.0477,
足立 (Adachi),2013-12-20,02:01～03:00,0.0517,0.0445,0.0488,
足立 (Adachi),2013-12-20,01:01～02:00,0.0534,0.0469,0.0500,
足立 (Adachi),2013-12-20,00:01～01:00,0.0541,0.0451,0.0496,
足立 (Adachi),2013-12-19,23:01～24:00,0.0535,0.0467,0.0499,
足立 (Adachi),2013-12-19,22:01～23:00,0.0530,0.0463,0.0502,
足立 (Adachi),2013-12-19,21:01～22:00,0.0541,0.0470,0.0512,
足立 (Adachi),2013-12-19,20:01～21:00,0.0546,0.0489,0.0519,
足立 (Adachi),2013-12-19,19:01～20:00,0.0555,0.0479,0.0517,
足立 (Adachi),2013-12-19,18:01～19:00,0.0533,0.0449,0.0496,
足立 (Adachi),2013-12-19,17:01～18:00,0.0534,0.0456,0.0493,
足立 (Adachi),2013-12-19,16:01～17:00,0.0534,0.0460,0.0498,
足立 (Adachi),2013-12-19,15:01～16:00,0.0541,0.0482,0.0512,
足立 (Adachi),2013-12-19,14:01～15:00,0.0547,0.0460,0.0498,
足立 (Adachi),2013-12-19,13:01～14:00,0.0513,0.0457,0.0488,
足立 (Adachi),2013-12-19,12:01～13:00,0.0517,0.0456,0.0493,
足立 (Adachi),2013-12-19,11:01～12:00,0.0526,0.0451,0.0481,
足立 (Adachi),2013-12-19,10:01～11:00,0.0488,0.0419,0.0464,
足立 (Adachi),2013-12-19,09:01～10:00,0.0496,0.0429,0.0461,
足立 (Adachi),2013-12-19,08:01～09:00,0.0510,0.0446,0.0474,
足立 (Adachi),2013-12-19,07:01～08:00,0.0530,0.0450,0.0481,
足立 (Adachi),2013-12-19,06:01～07:00,0.0511,0.0455,0.0483,
足立 (Adachi),2013-12-19,05:01～06:00,0.0536,0.0448,0.0490,
足立 (Adachi),2013-12-19,04:01～05:00,0.0527,0.0467,0.0497,
足立 (Adachi),2013-12-19,03:01～04:00,0.0542,0.0465,0.0500,
足立 (Adachi),2013-12-19,02:01～03:00,0.0533,0.0471,0.0498,
足立 (Adachi),2013-12-19,01:01～02:00,0.0570,0.0472,0.0509,
足立 (Adachi),2013-12-19,00:01～01:00,0.0572,0.0490,0.0528,
足立 (Adachi),2013-12-18,23:01～24:00,0.0569,0.0510,0.0541,
足立 (Adachi),2013-12-18,22:01～23:00,0.0589,0.0493,0.0534,
足立 (Adachi),2013-12-18,21:01～22:00,0.0569,0.0511,0.0541,
足立 (Adachi),2013-12-18,20:01～21:00,0.0569,0.0505,0.0533,
足立 (Adachi),2013-12-18,19:01～20:00,0.0564,0.0483,0.0530,
足立 (Adachi),2013-12-18,18:01～19:00,0.0547,0.0477,0.0511,
足立 (Adachi),2013-12-18,17:01～18:00,0.0539,0.0479,0.0510,
足立 (Adachi),2013-12-18,16:01～17:00,0.0553,0.0473,0.0519,
足立 (Adachi),2013-12-18,15:01～16:00,0.0536,0.0464,0.0501,
足立 (Adachi),2013-12-18,14:01～15:00,0.0528,0.0462,0.0489,
足立 (Adachi),2013-12-18,13:01～14:00,0.0518,0.0460,0.0487,
足立 (Adachi),2013-12-18,12:01～13:00,0.0533,0.0461,0.0492,
足立 (Adachi),2013-12-18,11:01～12:00,0.0533,0.0468,0.0494,
足立 (Adachi),2013-12-18,10:01～11:00,0.0527,0.0460,0.0494,
足立 (Adachi),2013-12-18,09:01～10:00,0.0521,0.0463,0.0493,
足立 (Adachi),2013-12-18,08:01～09:00,0.0526,0.0454,0.0491,
足立 (Adachi),2013-12-18,07:01～08:00,0.0522,0.0455,0.0491,
足立 (Adachi),2013-12-18,06:01～07:00,0.0527,0.0465,0.0492,
足立 (Adachi),2013-12-18,05:01～06:00,0.0527,0.0458,0.0491,
足立 (Adachi),2013-12-18,04:01～05:00,0.0514,0.0452,0.0488,
足立 (Adachi),2013-12-18,03:01～04:00,0.0517,0.0445,0.0489,
足立 (Adachi),2013-12-18,02:01～03:00,0.0521,0.0454,0.0489,
足立 (Adachi),2013-12-18,01:01～02:00,0.0530,0.0453,0.0489,
足立 (Adachi),2013-12-18,00:01～01:00,0.0517,0.0452,0.0490,
足立 (Adachi),2013-12-17,23:01～24:00,0.0516,0.0466,0.0492,
足立 (Adachi),2013-12-17,22:01～23:00,0.0520,0.0450,0.0487,
足立 (Adachi),2013-12-17,21:01～22:00,0.0526,0.0457,0.0486,
足立 (Adachi),2013-12-17,20:01～21:00,0.0513,0.0462,0.0483,
足立 (Adachi),2013-12-17,19:01～20:00,0.0522,0.0433,0.0484,
足立 (Adachi),2013-12-17,18:01～19:00,0.0510,0.0463,0.0485,
足立 (Adachi),2013-12-17,17:01～18:00,0.0515,0.0445,0.0478,
足立 (Adachi),2013-12-17,16:01～17:00,0.0509,0.0445,0.0478,
足立 (Adachi),2013-12-17,15:01～16:00,0.0507,0.0457,0.0484,
足立 (Adachi),2013-12-17,14:01～15:00,0.0529,0.0445,0.0482,
足立 (Adachi),2013-12-17,13:01～14:00,0.0517,0.0455,0.0482,
足立 (Adachi),2013-12-17,12:01～13:00,0.0516,0.0451,0.0489,
足立 (Adachi),2013-12-17,11:01～12:00,0.0517,0.0454,0.0486,
足立 (Adachi),2013-12-17,10:01～11:00,0.0521,0.0448,0.0488,
足立 (Adachi),2013-12-17,09:01～10:00,0.0514,0.0445,0.0484,
足立 (Adachi),2013-12-17,08:01～09:00,0.0516,0.0451,0.0485,
足立 (Adachi),2013-12-17,07:01～08:00,0.0511,0.0451,0.0478,
足立 (Adachi),2013-12-17,06:01～07:00,0.0512,0.0458,0.0480,
足立 (Adachi),2013-12-17,05:01～06:00,0.0517,0.0452,0.0481,
足立 (Adachi),2013-12-17,04:01～05:00,0.0527,0.0448,0.0483,
足立 (Adachi),2013-12-17,03:01～04:00,0.0513,0.0442,0.0480,
足立 (Adachi),2013-12-17,02:01～03:00,0.0516,0.0457,0.0484,
足立 (Adachi),2013-12-17,01:01～02:00,0.0515,0.0456,0.0485,
足立 (Adachi),2013-12-17,00:01～01:00,0.0518,0.0452,0.0487,
足立 (Adachi),2013-12-16,23:01～24:00,0.0529,0.0457,0.0486,
足立 (Adachi),2013-12-16,22:01～23:00,0.0524,0.0465,0.0491,
足立 (Adachi),2013-12-16,21:01～22:00,0.0520,0.0443,0.0487,
足立 (Adachi),2013-12-16,20:01～21:00,0.0511,0.0457,0.0483,
足立 (Adachi),2013-12-16,19:01～20:00,0.0522,0.0459,0.0486,
足立 (Adachi),2013-12-16,18:01～19:00,0.0511,0.0449,0.0479,
足立 (Adachi),2013-12-16,17:01～18:00,0.0510,0.0443,0.0477,
足立 (Adachi),2013-12-16,16:01～17:00,0.0506,0.0453,0.0480,
足立 (Adachi),2013-12-16,15:01～16:00,0.0519,0.0459,0.0483,
足立 (Adachi),2013-12-16,14:01～15:00,0.0504,0.0455,0.0485,
足立 (Adachi),2013-12-16,13:01～14:00,0.0514,0.0449,0.0482,
足立 (Adachi),2013-12-16,12:01～13:00,0.0512,0.0454,0.0481,
足立 (Adachi),2013-12-16,11:01～12:00,0.0526,0.0448,0.0482,
足立 (Adachi),2013-12-16,10:01～11:00,0.0526,0.0458,0.0482,
足立 (Adachi),2013-12-16,09:01～10:00,0.0517,0.0458,0.0483,
足立 (Adachi),2013-12-16,08:01～09:00,0.0512,0.0433,0.0473,
足立 (Adachi),2013-12-16,07:01～08:00,0.0516,0.0436,0.0479,
足立 (Adachi),2013-12-16,06:01～07:00,0.0512,0.0438,0.0478,
足立 (Adachi),2013-12-16,05:01～06:00,0.0522,0.0452,0.0485,
足立 (Adachi),2013-12-16,04:01～05:00,0.0527,0.0451,0.0483,
足立 (Adachi),2013-12-16,03:01～04:00,0.0511,0.0450,0.0484,
足立 (Adachi),2013-12-16,02:01～03:00,0.0515,0.0460,0.0487,
足立 (Adachi),2013-12-16,01:01～02:00,0.0520,0.0446,0.0488,
足立 (Adachi),2013-12-16,00:01～01:00,0.0516,0.0460,0.0488,
